Location: Kalberh�ni
(46.4610°N, 7.2453°E)
Time: 20:44:25
(UTC+00:00)

Cosmos 1626 - Pass Details

Date: 25 October 2021
Orbit: 487 x 492 km, 82.5° (Epoch: 03 December)

Event Time Altitude Azimuth Distance (km) Brightness Sun altitude
Exits shadow 03:20:29 22° 120° (ESE) 1,136 4.3 -28.4°
Maximum altitude 03:21:39 26° 90° (E) 1,018 4.3 -28.2°
Drops below altitude 10° 03:24:45 10° 33° (NNE) 1,699 5.3 -27.7°
Sets 03:27:06 0° 21° (NNE) 2,587 6.2 -27.3°
